{"data":{"norad_id":59409,"epoch":"2026-09-21T08:50:36.015360Z","epoch_age_seconds":90009,"freshness":"FRESH","line1":"1 59409U 24064M   26264.36847240 -.00000507  00000+0 -89099-5 0  9990","line2":"2 59409  43.0041  20.5768 0000952 273.7439  86.3304 15.27561278139214","mean_motion":15.27561278,"eccentricity":9.52e-5,"inclination_deg":43.0041,"raan_deg":20.5768,"arg_perigee_deg":273.7439,"mean_anomaly_deg":86.3304,"bstar":-8.9099e-6,"rev_number":13921,"period_min":94.26790405982,"perigee_km":482.45196676208,"apogee_km":483.75834726877,"semimajor_km":6861.2421570154,"source":"CELESTRAK","updated_at":"2026-09-22T09:00:48.915652Z"}}